Regional Weather Roundup
Issued by NWS

Home | Current Version | Previous Version | Graphics & Text | Print | Product List | Glossary On
Versions: 1 2 3 4 5 6 7 8 9 10 11 12 13 14 15 16 17 18 19 20 21 22 23 24 25 26 27 28 29 30 31 32 33 34 35 36 37 38 39 40 41 42 43 44 45 46 47 48 49 50
000
ASUS43 KMKX 210621
RWRWI

WISCONSIN REGIONAL WEATHER ROUNDUP
NATIONAL WEATHER SERVICE MILWAUKEE/SULLIVAN WI
1200 AM CST TUE FEB 21 2017

NOTE: "FAIR" INDICATES FEW OR NO CLOUDS BELOW 12,000 FEET WITH NO
SIGNIFICANT WEATHER AND/OR OBSTRUCTIONS TO VISIBILITY.

WIZ001-002-006>008-014>016-023>028-210700-
NORTHWEST WISCONSIN

CITY           SKY/WX    TMP DP  RH WIND       PRES   REMARKS
SUPERIOR ARPT  CLOUDY    43  42  94 W12       29.69R
6HR MIN TEMP:  36; 6HR MAX TEMP:  45; 6HR PCP:  0.11;

ASHLAND        CLOUDY    50  49  96 SW16      29.61R
6HR MIN TEMP:  49; 6HR MAX TEMP:  50; 6HR PCP:  0.10;

HAYWARD        CLOUDY    49  46  90 W8G21     29.69R
6HR MIN TEMP:  48; 6HR MAX TEMP:  51; 6HR PCP:  0.18;

SIREN          CLOUDY    43  40  91 W10       29.75R
6HR MIN TEMP:  43; 6HR MAX TEMP:  51; 6HR PCP:  0.08;

CUMBERLAND     CLOUDY    43  41  93 W21G26    29.74R
RICE LAKE      CLOUDY    46  45  98 W15G22    29.75R
6HR MIN TEMP:  46; 6HR MAX TEMP:  51; 6HR PCP:  0.10;

CHETEK         CLOUDY    47  46  97 W12G20    29.74R
6HR MIN TEMP:  47; 6HR MAX TEMP:  52; 6HR PCP:  0.12;

LADYSMITH      CLOUDY    51  50  98 SW12G17   29.70R FOG
6HR MIN TEMP:  48; 6HR MAX TEMP:  51; 6HR PCP:  0.17;

EAU CLAIRE     CLOUDY    48  47  96 W16G26    29.75R FOG
6HR MIN TEMP:  48; 6HR MAX TEMP:  54; 6HR PCP:  0.06;

MENOMONIE      CLOUDY    45  45 100 W17G23    29.80R
6HR MIN TEMP:  45; 6HR MAX TEMP:  53; 6HR PCP:  0.03;

NEW RICHMOND   CLOUDY    41  41  99 W13       29.80R
6HR MIN TEMP:  41; 6HR MAX TEMP:  52; 6HR PCP:  0.01;

OSCEOLA        NOT AVBL
$$

WIZ003>005-009-010-017-018-210700-
NORTH CENTRAL WISCONSIN

CITY           SKY/WX    TMP DP  RH WIND       PRES   REMARKS
MANITOWISH WTR DRZL/FOG  45  45 100 S10       29.64S VSB 3/4
6HR MIN TEMP:  43; 6HR MAX TEMP:  46; 6HR PCP:  0.25;

ARBOR VITAE    RAIN      48  47  97 S14G20    29.66F VSB 1/2
6HR MIN TEMP:  45; 6HR MAX TEMP:  49; 6HR PCP:  0.32;

WOODRUFF       RAIN      48  47  97 S14G20    29.66F VSB 1/2
6HR MIN TEMP:  45; 6HR MAX TEMP:  49; 6HR PCP:  0.32;

RHINELANDER    LGT RAIN  48  48 100 S12       29.70S VSB 1/4
6HR MIN TEMP:  47; 6HR MAX TEMP:  48; 6HR PCP:  0.31;

EAGLE RIVER    FOG       46  46 100 S9        29.67F VSB 3/4
6HR MIN TEMP:  43; 6HR MAX TEMP:  46;

LAND O LAKES   FOG       46  46 100 S9        29.67F VSB 3/4
6HR MIN TEMP:  44; 6HR MAX TEMP:  46; 6HR PCP:  0.15;

PHILLIPS       CLOUDY    50  50 100 SW12G18   29.66S
6HR MIN TEMP:  46; 6HR MAX TEMP:  50; 6HR PCP:  0.29;

TOMAHAWK       DRZL/FOG  47  47  97 S3        29.70S VSB 1/2
6HR MIN TEMP:  44; 6HR MAX TEMP:  47;

MEDFORD        LGT RAIN  48  48  99 S14       29.70S VSB 1/2
6HR MIN TEMP:  44; 6HR MAX TEMP:  49; 6HR PCP:  0.30;

MERRILL        NOT AVBL
$$

WIZ029-030-035-036-043>047-210700-
CENTRAL WISCONSIN

CITY           SKY/WX    TMP DP  RH WIND       PRES   REMARKS
WAUSAU         FOG       49  49 100 S12       29.72F VSB 1/4
6HR MIN TEMP:  46; 6HR MAX TEMP:  50; 6HR PCP:  0.55;

MOSINEE        DRZL/FOG  50  50 100 S13       29.75F VSB 1
MARSHFIELD     LGT RAIN  51  50  96 SW12      29.72S FOG
6HR MIN TEMP:  48; 6HR MAX TEMP:  52; 6HR PCP:  0.23;

STEVENS POINT  DRZL/FOG  49  49 100 S10       29.78R VSB 1/2
6HR MIN TEMP:  46; 6HR MAX TEMP:  50; 6HR PCP:  0.22;

WAUPACA        CLOUDY    54  53  97 S5        29.78S FOG
6HR MIN TEMP:  49; 6HR MAX TEMP:  54; 6HR PCP:  0.11;

WAUTOMA        CLOUDY    54  53  97 S10       29.79F FOG
6HR MIN TEMP:  50; 6HR MAX TEMP:  54; 6HR PCP:  0.20;

WISC RAPIDS    CLOUDY    54  54 100 S10       29.77F FOG
6HR MIN TEMP:  52; 6HR MAX TEMP:  55; 6HR PCP:  0.41;

CAMP DOUGLAS   CLOUDY    57  55  92 SW13      29.77F
6HR MIN TEMP:  55; 6HR MAX TEMP:  57; 6HR PCP:  0.33;

$$

WIZ011>013-019>022-031-037>040-048>050-210700-
NORTHEAST WISCONSIN

CITY           SKY/WX    TMP DP  RH WIND       PRES   REMARKS
ANTIGO         FOG       43  43 100 S14       29.75R VSB<1/4
6HR MIN TEMP:  40; 6HR MAX TEMP:  43; 6HR PCP:  0.23;

SHAWANO        CLOUDY    52  50  93 S6        29.77S FOG
6HR MIN TEMP:  48; 6HR MAX TEMP:  51; 6HR PCP:  0.27;

OCONTO         CLOUDY    46  43  92 S7        29.79S
6HR MIN TEMP:  43; 6HR MAX TEMP:  47; 6HR PCP:  0.15;

STURGEON BAY   LGT RAIN  46  43  87 S21G30    29.80F
6HR MIN TEMP:  44; 6HR MAX TEMP:  50; 6HR PCP:  0.13;

GREEN BAY      CLOUDY    48  48 100 S8        29.81F
6HR MIN TEMP:  48; 6HR MAX TEMP:  53; 6HR PCP:  0.18;

MANITOWOC      LGT RAIN  46  41  82 MISG      29.86F
6HR MIN TEMP:  44; 6HR MAX TEMP:  48; 6HR PCP:  0.09;

APPLETON       DRIZZLE   50  50 100 S12       29.79F
CLINTONVILLE   CLOUDY    50  50 100 S9        29.77F FOG
OSHKOSH        LGT RAIN  51  50  96 S14       29.81F
6HR MIN TEMP:  51; 6HR MAX TEMP:  53; 6HR PCP:  0.16;

$$

WIZ032>034-041-042-053>061-210700-
SOUTHWEST WISCONSIN

CITY           SKY/WX    TMP DP  RH WIND       PRES   REMARKS
LA CROSSE      CLOUDY    52  47  83 CALM      29.81R
6HR MIN TEMP:  52; 6HR MAX TEMP:  58; 6HR PCP:  0.11;

SPARTA         CLOUDY    55  52  89 SW7       29.79R
6HR MIN TEMP:  55; 6HR MAX TEMP:  56; 6HR PCP:  0.17;

VIROQUA        CLOUDY    53  51  94 W15G23    29.82R
6HR MIN TEMP:  55; 6HR MAX TEMP:  55; 6HR PCP:  0.20;

BOSCOBEL       CLOUDY    57  55  93 SW7       29.83R
6HR MIN TEMP:  57; 6HR MAX TEMP:  60; 6HR PCP:  0.16;

PRAIRIE DU CHI CLOUDY    53  52  97 W12       29.84R
6HR MIN TEMP:  55; 6HR MAX TEMP:  56; 6HR PCP:  0.10;

PLATTEVILLE    CLOUDY    54  54 100 SW7       29.86S
6HR MIN TEMP:  53; 6HR MAX TEMP:  56; 6HR PCP:  0.17;

$$

WIZ056-057-062-063-064-067-068-210700-
SOUTH CENTRAL WISCONSIN

CITY           SKY/WX    TMP DP  RH WIND       PRES   REMARKS
REEDSBURG      CLOUDY    55  55 100 SW9       29.81R
6HR MIN TEMP:  55; 6HR MAX TEMP:  56; 6HR PCP:  0.26;

BARABOO/DELLS  CLOUDY    55  53  92 SW9       29.80S
6HR MIN TEMP:  54; 6HR MAX TEMP:  56; 6HR PCP:  0.16;

LONE ROCK      MOCLDY    55  52  89 SW5       29.83S
6HR MIN TEMP:  55; 6HR MAX TEMP:  58; 6HR PCP:  0.17;

MINERAL POINT  FOG       55  55 100 S9        29.84F VSB 1/4
MADISON        LGT RAIN  54  53  97 S8        29.84F FOG
6HR MIN TEMP:  53; 6HR MAX TEMP:  58; 6HR PCP:  0.31;

MIDDLETON        N/A     57  57 100 S7        29.83F
6HR MIN TEMP:  57; 6HR MAX TEMP:  59; 6HR PCP:  0.48;

WATERTOWN      LGT RAIN  53  53 100 S5        29.86S
6HR MIN TEMP:  52; 6HR MAX TEMP:  56; 6HR PCP:  0.15;

MONROE         DRIZZLE   55  55 100 SW10      29.86F
JANESVILLE     LGT RAIN  55  55 100 S7        29.87F
$$

WIZ051-052-058>065-066-070>072-210700-
SOUTHEAST WISCONSIN

CITY           SKY/WX    TMP DP  RH WIND       PRES   REMARKS
MILWAUKEE      CLOUDY    55  43  63 S5        29.88S
6HR MIN TEMP:  55; 6HR MAX TEMP:  59;

WAUKESHA       CLOUDY    55  46  71 S9        29.88F
MILWAUKEE/TIMM CLOUDY    55  41  58 S5        29.87F
RACINE         MOCLDY    47  39  74 S6        29.90S
6HR MIN TEMP:  47; 6HR MAX TEMP:  52;

KENOSHA        MOCLDY    59  45  59 SW10      29.89S
6HR MIN TEMP:  55; 6HR MAX TEMP:  60;

FOND DU LAC    LGT RAIN  52  49  89 S8        29.84F FOG
6HR MIN TEMP:  52; 6HR MAX TEMP:  55; 6HR PCP:  0.21;

SHEBOYGAN      CLOUDY    46  40  79 S10       29.86F
6HR MIN TEMP:  45; 6HR MAX TEMP:  51; 6HR PCP:  0.02;

WEST BEND      CLOUDY    52  48  87 S6        29.87F
JUNEAU         LGT RAIN  53  51  96 S8        29.87S
6HR MIN TEMP:  51; 6HR MAX TEMP:  55; 6HR PCP:  0.25;

$$

LSZ147-162-210700-
LAKE SUPERIOR

STATION/POSITION TIME  TEMP    WIND        PRES    WAVE
                       AIR SEA DIR/SP/G            HT/PER
                 (UTC) (F)     (DEG/KT/KT) (MB)    (FT/S)
DEVILS ISLAND    0600   42     240/ 13/ 15 1002.2R
PORT WING        0540   42     230/  9/ 11 1003.4R
SAXON HARBOR     0540   52     200/  7/ 12 1002.0S
$$

LMZ867-665-643>646-210700-
LAKE MICHIGAN

STATION/POSITION TIME  TEMP    WIND        PRES    WAVE
                       AIR SEA DIR/SP/G            HT/PER
                 (UTC) (F)     (DEG/KT/KT) (MB)    (FT/S)
CHAMBERS ISLAND  0540   44     170/ 10/ 19 1009.1S
NORTHPORT PIER   0600   44     160/ 12/ 24 1009.5
SISTER BAY       0450   43     170/ 22/ 29   N/A
KEWAUNEE LAKESHO 0554   41     18



USA.gov is the U.S. government's official web portal to all federal, state and local government web resources and services.